{"data":{"norad_id":40001,"intl_designator":"2014-032A","name":"COSMOS 2500 (755)","alt_names":[],"object_type":"PAYLOAD","status":"ACTIVE","operator":null,"country":"CIS","launch_date":"2014-06-14","launch_site_code":"PLMSC","launch_vehicle":null,"mission":null,"orbit_class":"UNKNOWN","rcs_meters":11.3214,"size_class":null,"mass_kg":null,"dimensions":null,"purposes":["nav"],"wikipedia_slug":null,"has_3d_model":false,"image_url":null,"decayed_at":null,"tle_current":{"epoch":"2026-05-23T04:02:15.554976Z","epoch_age_seconds":233277,"freshness":"STALE","line1":"1 40001U 14032A   26143.16823559 -.00000040  00000+0  00000+0 0  9993","line2":"2 40001  65.2477 314.5351 0006530 181.5135 178.4814  2.13105757 92924","mean_motion":2.13105757,"eccentricity":0.000653,"inclination_deg":65.2477,"raan_deg":314.5351,"arg_perigee_deg":181.5135,"mean_anomaly_deg":178.4814,"bstar":0,"rev_number":9292,"period_min":675.72083470274,"perigee_km":19112.931082504,"apogee_km":19146.244170866,"semimajor_km":25507.724626685,"source":"CELESTRAK","updated_at":"2026-05-25T13:38:23.893741Z"}}}